ARSAT 2

Last updated on Tue Sep 22 2026 00:03:13 GMT+0000 (Coordinated Universal Time)

1 40941U 15054B 26264.54436426 .00000000 00000+0 00000+0 0 9995 2 40941 0.0156 153.5044 0001895 22.1351 299.7583 1.00269117 40274
UTC large
Height (km)
Speed (km/s)
/
Latitude / Longitude
Inclination (degrees)
Orbital Period (minutes)
Azimuth
Elevation
Range (km)
Doppler Factor

Next 0 passes for location: London (51.5072 / 0.1276)

No passes found over London.
ARSAT 2